Regional Weather Roundup
Issued by NWS

Home | Current Version | Previous Version | Graphics & Text | Print | Product List | Glossary On
Versions: 1 2 3 4 5 6 7 8 9 10 11 12 13 14 15 16 17 18 19 20 21 22 23 24 25 26 27 28 29 30 31 32 33 34 35 36 37 38 39 40 41 42 43 44 45 46 47 48 49 50
000
ASUS43 KFSD 161110
RWRSD

WEATHER ROUNDUP FOR SOUTH DAKOTA
NATIONAL WEATHER SERVICE SIOUX FALLS SD
600 AM CDT TUE SEP 16 2014

NOTE: "FAIR" INDICATES FEW OR NO CLOUDS BELOW 12,000 FEET WITH NO
SIGNIFICANT WEATHER AND/OR OBSTRUCTIONS TO VISIBILITY.


SDZ001>005-009-010-012>017-161200-
NORTHWEST AND NORTH CENTRAL SOUTH DAKOTA

CITY           SKY/WX    TMP DP  RH WIND       PRES   REMARKS
BUFFALO          N/A     43  40  89 SW3       29.98F
FAITH            N/A     43  38  82 SE10      30.02F
MOBRIDGE       CLEAR     50  42  74 S12       30.03F
$$

SDZ012>016-024>037-041>051-057-063-072>074-161200-
SOUTHWEST AND SOUTH CENTRAL SOUTH DAKOTA

CITY           SKY/WX    TMP DP  RH WIND       PRES   REMARKS
RAPID CTY ARPT CLEAR     42  39  89 N3        30.03F
PIERRE         CLEAR     46  40  79 SE10      30.05F
CUSTER         PTCLDY    46  37  71 NW6       30.13F
ELLSWORTH AFB  CLEAR     44  40  86 NW2       30.03F
PHILIP         CLEAR     43  39  86 NE3       30.03F
PINE RIDGE     CLEAR     52  47  83 SW7       30.06F
WINNER         FAIR      52  41  66 S21       30.08F
$$

SDZ004>011-016>023-039-040-161200-
NORTHEAST SOUTH DAKOTA

CITY           SKY/WX    TMP DP  RH WIND       PRES   REMARKS
ABERDEEN       CLEAR     33  32  96 S3        30.13F
WATERTOWN      CLEAR     39  36  89 SE5       30.16F
SISSETON         N/A     50  39  66 SW9       30.12F
$$

SDZ017-020-022-023-036>040-048>070-161200-
SOUTHEAST SOUTH DAKOTA

CITY           SKY/WX    TMP DP  RH WIND       PRES   REMARKS
SIOUX FALLS    CLEAR     39  38  96 CALM      30.20F
HURON          CLEAR     40  36  86 SE5       30.15F
CHAMBERLAIN    CLEAR     42  40  93 SE6       30.11F
MITCHELL       CLEAR     41  39  93 SE6       30.17F
YANKTON        CLEAR     41  37  87 CALM      30.20F
$$

ABBREVIATIONS USED IN REMARKS
   TC - TEMPERATURE IN CELSIUS
  WCI - WIND CHILL INDEX
   HX - HEAT INDEX
  VSB - VISIBILITY




USA.gov is the U.S. government's official web portal to all federal, state and local government web resources and services.